Granite Falls, MN

11:03 AM CST on December 11, 2019 (GMT -0600)
Granite Falls

Weather History for KGDB - October, 2019

Change the Weather History Date:

Thursday, October 17, 2019

  Actual Average (KMVE) Record (KMVE)
Temperature  
Mean Temperature 48 °F -  
Max Temperature 64 °F 59 °F 86 °F (1961)
Min Temperature 32 °F 35 °F 17 °F (1952)
Degree Days  
Heating Degree Days 17    
Moisture  
Dew Point 38 °F    
Average Humidity 70    
Maximum Humidity 96    
Minimum Humidity 41    
Precipitation  
Precipitation 0.00 in - - ()
Sea Level Pressure  
Sea Level Pressure 29.90 in    
Wind  
Wind Speed 7 mph (ESE)    
Max Wind Speed 17 mph    
Max Gust Speed 24 mph    
Visibility 10 miles    
Events      
Averages and records for this station are not official NWS values.
T = Trace of Precipitation, MM = Missing Value Source: NWS Daily Summary

Daily Weather History Graph

Daily Weather History Graph

Search for Another Location

Airport or City:

Astronomy

Oct. 17, 2019 Rise Set
Actual Time 7:39 AM CDT 6:34 PM CDT
Civil Twilight 7:10 AM CDT 7:03 PM CDT
Nautical Twilight 6:36 AM CDT 7:37 PM CDT
Astronomical Twilight 6:02 AM CDT 8:11 PM CDT
Moon 8:58 PM CDT (10/17) 11:20 AM CDT (10/17)
Length of Visible Light 11h 53m
Length of Day
10h 54m
Waning Gibbous, 86% of the Moon is Illuminated
Oct 17
Waning Gibbous
Oct 21
Last Quarter
Oct 27
New
Nov 4
First Quarter
Nov 12
Full

Hourly Weather History & Observations

Time (CDT) Temp. Windchill Dew Point Humidity Pressure Visibility Wind Dir Wind Speed Gust Speed Precip Events Conditions
12:16 AM 38.5 °F 35.0 °F 34.9 °F 87% 30.03 in 10.0 mi East 4.6 mph - N/A   Clear
12:36 AM 38.3 °F 35.9 °F 34.7 °F 87% 30.03 in 10.0 mi ESE 3.5 mph - N/A   Clear
12:55 AM 36.3 °F - 33.1 °F 88% 30.03 in 10.0 mi Calm Calm - N/A   Clear
12:56 AM 36.1 °F - 32.9 °F 88% 30.03 in 10.0 mi Calm Calm - N/A   Clear
1:15 AM 37.4 °F 34.9 °F 34.5 °F 89% 30.03 in 10.0 mi ESE 3.5 mph - N/A   Clear
1:19 AM 37.4 °F - 34.2 °F 88% 30.03 in 10.0 mi Calm Calm - N/A   Clear
1:37 AM 36.7 °F 32.0 °F 34.0 °F 90% 30.02 in 10.0 mi East 5.8 mph - N/A   Clear
1:56 AM 35.6 °F 32.8 °F 33.1 °F 91% 30.02 in 10.0 mi East 3.5 mph - N/A   Clear
2:15 AM 35.4 °F 30.5 °F 33.4 °F 92% 30.01 in 10.0 mi ESE 5.8 mph - N/A   Clear
2:16 AM 35.6 °F 30.7 °F 33.6 °F 92% 30.01 in 10.0 mi ESE 5.8 mph - N/A   Clear
2:35 AM 36.5 °F 31.8 °F 33.8 °F 90% 30.01 in 10.0 mi ESE 5.8 mph - N/A   Clear
2:36 AM 36.5 °F 31.8 °F 33.8 °F 90% 30.01 in 10.0 mi ESE 5.8 mph - N/A   Clear
2:58 AM 36.5 °F 31.8 °F 33.6 °F 89% 30.00 in 10.0 mi SE 5.8 mph - N/A   Clear
3:16 AM 35.8 °F 30.1 °F 33.3 °F 91% 30.00 in 10.0 mi ESE 6.9 mph - N/A   Clear
3:35 AM 35.6 °F 30.7 °F 32.9 °F 90% 29.99 in 10.0 mi ESE 5.8 mph - N/A   Clear
3:36 AM 35.6 °F 30.7 °F 32.9 °F 90% 30.00 in 10.0 mi ESE 5.8 mph - N/A   Clear
3:55 AM 35.1 °F 29.3 °F 32.7 °F 91% 29.98 in 10.0 mi SE 6.9 mph - N/A   Clear
3:56 AM 34.9 °F 29.0 °F 32.7 °F 92% 29.98 in 10.0 mi SE 6.9 mph - N/A   Clear
4:15 AM 34.9 °F 30.8 °F 32.7 °F 92% 29.98 in 10.0 mi ESE 4.6 mph - N/A   Clear
4:37 AM 34.9 °F 30.8 °F 32.4 °F 91% 29.98 in 10.0 mi East 4.6 mph - N/A   Clear
4:55 AM 34.3 °F 30.2 °F 32.2 °F 92% 29.98 in 10.0 mi East 4.6 mph - N/A   Clear
5:15 AM 32.7 °F - 31.3 °F 94% 29.98 in 10.0 mi Calm Calm - N/A   Clear
5:35 AM 32.5 °F 28.1 °F 31.5 °F 96% 29.98 in 10.0 mi East 4.6 mph - N/A   Clear
5:58 AM 32.9 °F 28.5 °F 31.8 °F 96% 29.97 in 10.0 mi East 4.6 mph - N/A   Clear
6:17 AM 32.5 °F 28.1 °F 31.5 °F 96% 29.97 in 10.0 mi East 4.6 mph - N/A   Clear
6:36 AM 33.1 °F 28.7 °F 32.0 °F 96% 29.97 in 10.0 mi East 4.6 mph - N/A   Clear
6:55 AM 33.4 °F 28.1 °F 32.0 °F 94% 29.97 in 10.0 mi East 5.8 mph - N/A   Clear
6:56 AM 33.4 °F 28.1 °F 32.0 °F 94% 29.97 in 10.0 mi East 5.8 mph - N/A   Clear
7:15 AM 34.0 °F 28.8 °F 32.2 °F 93% 29.97 in 7.0 mi ESE 5.8 mph - N/A   Clear
7:37 AM 34.7 °F 28.8 °F 32.5 °F 92% 29.97 in 10.0 mi ESE 6.9 mph - N/A   Clear
7:56 AM 34.7 °F 29.6 °F 32.4 °F 91% 29.97 in 10.0 mi East 5.8 mph - N/A   Clear
8:15 AM 34.9 °F 32.0 °F 32.7 °F 92% 29.97 in 7.0 mi East 3.5 mph - N/A   Clear
8:16 AM 34.9 °F 30.8 °F 32.9 °F 92% 29.97 in 7.0 mi ESE 4.6 mph - N/A   Clear
8:35 AM 36.5 °F 31.8 °F 34.0 °F 91% 29.97 in 7.0 mi East 5.8 mph - N/A   Clear
8:36 AM 36.5 °F 31.0 °F 34.0 °F 91% 29.97 in 7.0 mi East 6.9 mph - N/A   Clear
8:59 AM 38.3 °F 33.9 °F 34.9 °F 87% 29.97 in 10.0 mi East 5.8 mph - N/A   Clear
9:16 AM 40.3 °F 35.5 °F 36.0 °F 85% 29.97 in 7.0 mi East 6.9 mph - N/A   Clear
9:36 AM 42.1 °F 37.1 °F 36.7 °F 81% 29.97 in 7.0 mi ESE 8.1 mph - N/A   Clear
9:55 AM 44.2 °F 39.7 °F 37.6 °F 77% 29.97 in 10.0 mi ESE 8.1 mph - N/A   Clear
10:15 AM 46.8 °F - 38.5 °F 73% 29.95 in 7.0 mi ESE 10.4 mph - N/A   Clear
10:19 AM 47.5 °F - 38.8 °F 72% 29.95 in 10.0 mi SE 9.2 mph - N/A   Clear
10:38 AM 49.3 °F - 39.0 °F 68% 29.95 in 10.0 mi SE 11.5 mph - N/A   Clear
10:55 AM 50.4 °F - 39.4 °F 66% 29.95 in 10.0 mi SE 12.7 mph - N/A   Clear
11:15 AM 52.0 °F - 39.7 °F 63% 29.95 in 10.0 mi SE 11.5 mph - N/A   Clear
11:16 AM 52.2 °F - 39.9 °F 63% 29.95 in 10.0 mi SE 12.7 mph - N/A   Clear
11:35 AM 53.6 °F - 40.1 °F 60% 29.94 in 10.0 mi SE 11.5 mph 16.1 mph N/A   Clear
11:58 AM 55.8 °F - 40.8 °F 57% 29.93 in 10.0 mi ESE 10.4 mph - N/A   Clear
12:16 PM 56.8 °F - 40.3 °F 54% 29.92 in 10.0 mi ESE 13.8 mph 18.4 mph N/A   Clear
12:35 PM 57.9 °F - 40.6 °F 53% 29.91 in 10.0 mi ESE 9.2 mph - N/A   Clear
12:36 PM 58.1 °F - 40.8 °F 53% 29.91 in 10.0 mi ESE 9.2 mph - N/A   Clear
12:55 PM 58.5 °F - 40.6 °F 52% 29.90 in 10.0 mi ESE 13.8 mph 18.4 mph N/A   Clear
1:15 PM 59.5 °F - 41.0 °F 50% 29.89 in 10.0 mi East 11.5 mph 18.4 mph N/A   Clear
1:19 PM 59.9 °F - 41.0 °F 50% 29.89 in 10.0 mi ESE 9.2 mph 18.4 mph N/A   Clear
1:38 PM 60.8 °F - 41.2 °F 48% 29.88 in 10.0 mi ESE 16.1 mph 19.6 mph N/A   Clear
1:55 PM 61.5 °F - 41.0 °F 47% 29.87 in 10.0 mi East 15.0 mph 18.4 mph N/A   Clear
2:15 PM 62.1 °F - 40.8 °F 46% 29.86 in 10.0 mi ESE 13.8 mph 20.7 mph N/A   Clear
2:16 PM 62.1 °F - 41.0 °F 46% 29.86 in 10.0 mi ESE 10.4 mph 20.7 mph N/A   Clear
2:35 PM 63.0 °F - 41.2 °F 45% 29.86 in 10.0 mi ESE 15.0 mph 21.9 mph N/A   Clear
2:58 PM 63.7 °F - 41.2 °F 44% 29.84 in 10.0 mi ESE 12.7 mph 20.7 mph N/A   Clear
3:17 PM 64.8 °F - 41.2 °F 42% 29.84 in 10.0 mi ESE 12.7 mph 20.7 mph N/A   Clear
3:36 PM 64.8 °F - 41.2 °F 42% 29.83 in 10.0 mi ESE 13.8 mph 23.0 mph N/A   Clear
3:55 PM 64.8 °F - 41.0 °F 42% 29.83 in 10.0 mi ESE 16.1 mph 21.9 mph N/A   Clear
3:56 PM 64.9 °F - 41.0 °F 42% 29.83 in 10.0 mi ESE 16.1 mph 21.9 mph N/A   Clear
4:15 PM 64.8 °F - 40.8 °F 42% 29.83 in 10.0 mi ESE 15.0 mph 21.9 mph N/A   Clear
4:37 PM 64.9 °F - 40.8 °F 41% 29.82 in 10.0 mi ESE 12.7 mph 23.0 mph N/A   Clear
4:55 PM 64.8 °F - 41.0 °F 42% 29.82 in 10.0 mi ESE 17.3 mph 24.2 mph N/A   Clear
5:15 PM 64.8 °F - 41.2 °F 42% 29.82 in 10.0 mi ESE 12.7 mph - N/A   Clear
5:16 PM 64.8 °F - 41.2 °F 42% 29.82 in 10.0 mi ESE 12.7 mph - N/A   Clear
5:35 PM 63.9 °F - 41.2 °F 43% 29.81 in 10.0 mi ESE 12.7 mph 18.4 mph N/A   Clear
5:36 PM 63.9 °F - 41.2 °F 43% 29.81 in 10.0 mi ESE 13.8 mph 18.4 mph N/A   Clear
5:59 PM 62.1 °F - 41.4 °F 47% 29.81 in 10.0 mi ESE 11.5 mph 18.4 mph N/A   Clear
6:16 PM 60.8 °F - 41.0 °F 48% 29.80 in 7.0 mi ESE 11.5 mph - N/A   Clear
6:36 PM 59.2 °F - 41.4 °F 52% 29.80 in 7.0 mi ESE 9.2 mph - N/A   Clear
6:55 PM 57.4 °F - 42.1 °F 57% 29.79 in 10.0 mi East 6.9 mph - N/A   Clear
6:56 PM 57.2 °F - 41.9 °F 57% 29.79 in 10.0 mi East 6.9 mph - N/A   Clear
7:15 PM 56.8 °F - 41.9 °F 57% 29.79 in 10.0 mi ESE 10.4 mph - N/A   Clear
7:19 PM 56.8 °F - 41.9 °F 57% 29.79 in 10.0 mi ESE 9.2 mph - N/A   Clear
7:37 PM 56.3 °F - 41.5 °F 58% 29.79 in 10.0 mi ESE 11.5 mph - N/A   Clear
7:56 PM 55.9 °F - 41.7 °F 59% 29.79 in 10.0 mi ESE 11.5 mph - N/A   Clear
8:15 PM 55.0 °F - 41.7 °F 61% 29.78 in 7.0 mi ESE 10.4 mph - N/A   Clear
8:16 PM 55.0 °F - 41.9 °F 61% 29.78 in 7.0 mi ESE 10.4 mph - N/A   Clear
8:35 PM 54.1 °F - 41.5 °F 62% 29.78 in 10.0 mi ESE 15.0 mph - N/A   Clear
8:36 PM 54.1 °F - 41.5 °F 62% 29.78 in 10.0 mi ESE 13.8 mph - N/A   Clear
8:58 PM 54.1 °F - 41.5 °F 62% 29.78 in 10.0 mi ESE 12.7 mph 18.4 mph N/A   Clear
9:17 PM 54.1 °F - 41.9 °F 63% 29.77 in 10.0 mi ESE 13.8 mph 19.6 mph N/A   Clear
9:35 PM 54.0 °F - 42.1 °F 64% 29.78 in 10.0 mi ESE 11.5 mph 18.4 mph N/A   Clear
9:55 PM 53.1 °F - 41.9 °F 66% 29.78 in 10.0 mi ESE 15.0 mph 19.6 mph N/A   Clear
9:56 PM 53.1 °F - 41.9 °F 66% 29.78 in 10.0 mi ESE 15.0 mph - N/A   Clear
10:15 PM 52.9 °F - 41.9 °F 66% 29.78 in 10.0 mi ESE 12.7 mph 20.7 mph N/A   Clear
10:19 PM 52.9 °F - 41.9 °F 66% 29.78 in 10.0 mi ESE 13.8 mph 18.4 mph N/A   Clear
10:38 PM 52.7 °F - 41.5 °F 66% 29.77 in 10.0 mi ESE 12.7 mph 20.7 mph N/A   Clear
10:55 PM 52.3 °F - 41.5 °F 67% 29.77 in 10.0 mi ESE 16.1 mph 19.6 mph N/A   Clear
11:15 PM 52.3 °F - 41.9 °F 68% 29.77 in 10.0 mi ESE 13.8 mph 20.7 mph N/A   Clear
11:16 PM 52.3 °F - 41.9 °F 68% 29.77 in 10.0 mi ESE 12.7 mph 20.7 mph N/A   Clear
11:35 PM 51.8 °F - 41.9 °F 69% 29.76 in 10.0 mi ESE 15.0 mph 19.6 mph N/A   Clear
11:36 PM 51.8 °F - 41.9 °F 69% 29.76 in 10.0 mi ESE 15.0 mph 19.6 mph N/A   Clear
11:58 PM 51.3 °F - 41.9 °F 70% 29.76 in 10.0 mi ESE 13.8 mph 19.6 mph N/A   Clear